FALCON 9 DEB (47682 NORAD) Tracking and Keplerian Element Data

This shows tracking and keplerian element data for the satellite.

Feedback or suggestion? Click here.




ElementValue
Catalog47682
NameFALCON 9 DEB
Epoch Orbit191
Epoch Day57.12818844
Epoch Year2021
RAAN51.5428
Inclination53.0497
Eccentricity0.0019071
Argument of Perigee245.3348
Mean Anonmoly114.5699
Mean Motion16.0825401
Decay Rate0.00419795
L11 47682U 21012BQ 21057.12818844 .00419795 96733-4 47540-3 0 9994
L22 47682 53.0497 51.5428 0019071 245.3348 114.5699 16.08254010 1912

Live tracking and technical data element details for FALCON 9 DEB (NORAD 47682). FALCON 9 DEB can be tracked NOW for your location showing map with azimuth and elevation plus other details from your city location.

Track the satellite on the map from your city or location and see movement details for azimuth, elevation, latitude, longitude, range, height, and movement on the map or in text.







IsCatalogInMostPopularTable: catalog: 47682, numindb: 1
Update: records affected: 1



GetName: 47682 FALCON 9 DEB

Hit Count: updated at: Fri, 26 Feb 2021 09:26:31 GMT